TimeCST,TemperatureF,Dew PointF,Humidity,Sea Level PressureIn,VisibilityMPH,Wind Direction,Wind SpeedMPH,Gust SpeedMPH,PrecipitationIn,Events,Conditions,WindDirDegrees,DateUTC
12:14 AM,30.2,19.4,64,30.02,10.0,SSW,13.8,23.0,N/A,,Clear,210,2013-11-25 06:14:00
12:33 AM,30.2,19.4,64,30.01,10.0,SSW,15.0,-,N/A,,Clear,210,2013-11-25 06:33:00
12:53 AM,30.2,21.2,69,30.01,10.0,SSW,12.7,-,N/A,,Clear,200,2013-11-25 06:53:00
1:14 AM,28.4,21.2,74,30.00,10.0,SSW,11.5,-,N/A,,Clear,210,2013-11-25 07:14:00
1:33 AM,28.4,21.2,74,30.00,10.0,SW,10.4,-,N/A,,Scattered Clouds,220,2013-11-25 07:33:00
1:53 AM,28.4,21.2,74,30.00,10.0,SW,6.9,-,N/A,,Scattered Clouds,220,2013-11-25 07:53:00
2:14 AM,28.4,23.0,80,29.99,10.0,SSW,12.7,-,N/A,,Mostly Cloudy,210,2013-11-25 08:14:00
2:33 AM,30.2,23.0,75,29.99,10.0,SSW,4.6,-,N/A,,Mostly Cloudy,200,2013-11-25 08:33:00
2:53 AM,28.4,23.0,80,29.99,10.0,SSW,9.2,-,N/A,,Clear,210,2013-11-25 08:53:00
3:14 AM,30.2,24.8,80,29.99,10.0,SSW,8.1,-,N/A,,Clear,200,2013-11-25 09:14:00
3:33 AM,30.2,23.0,75,29.97,10.0,South,9.2,-,N/A,,Clear,190,2013-11-25 09:33:00
3:53 AM,30.2,26.6,86,29.99,10.0,SW,10.4,-,N/A,,Clear,230,2013-11-25 09:53:00
4:13 AM,32.0,26.6,80,29.99,10.0,WSW,11.5,-,N/A,,Mostly Cloudy,240,2013-11-25 10:13:00
4:33 AM,32.0,26.6,80,29.97,7.0,SW,12.7,-,N/A,,Overcast,220,2013-11-25 10:33:00
4:54 AM,32.0,28.4,87,29.99,10.0,WSW,11.5,-,N/A,,Overcast,240,2013-11-25 10:54:00
5:13 AM,32.0,28.4,87,29.99,10.0,WSW,9.2,-,N/A,,Overcast,240,2013-11-25 11:13:00
5:33 AM,32.0,28.4,87,29.98,10.0,WSW,6.9,-,N/A,,Scattered Clouds,250,2013-11-25 11:33:00
5:54 AM,32.0,28.4,87,29.98,10.0,West,10.4,-,N/A,,Clear,260,2013-11-25 11:54:00
6:13 AM,32.0,28.4,87,29.98,10.0,West,13.8,-,N/A,,Clear,260,2013-11-25 12:13:00
6:33 AM,30.2,26.6,86,29.99,10.0,West,11.5,-,N/A,,Clear,270,2013-11-25 12:33:00
6:53 AM,30.2,26.6,86,30.00,10.0,West,10.4,-,N/A,,Clear,260,2013-11-25 12:53:00
7:13 AM,28.4,26.6,93,30.01,10.0,Calm,Calm,-,N/A,,Clear,0,2013-11-25 13:13:00
7:33 AM,28.4,24.8,86,30.02,10.0,WNW,4.6,-,N/A,,Clear,300,2013-11-25 13:33:00
7:53 AM,26.6,23.0,86,30.02,10.0,NW,3.5,-,N/A,,Clear,310,2013-11-25 13:53:00
8:13 AM,28.4,26.6,93,30.02,10.0,WNW,8.1,-,N/A,,Clear,290,2013-11-25 14:13:00
8:33 AM,28.4,24.8,86,30.03,10.0,WNW,6.9,-,N/A,,Clear,290,2013-11-25 14:33:00
8:53 AM,28.4,26.6,93,30.04,10.0,WNW,4.6,-,N/A,,Clear,300,2013-11-25 14:53:00
9:13 AM,32.0,28.4,87,30.05,10.0,NW,8.1,-,N/A,,Clear,320,2013-11-25 15:13:00
9:33 AM,32.0,28.4,87,30.05,10.0,NNW,12.7,16.1,N/A,,Clear,340,2013-11-25 15:33:00
9:53 AM,33.8,28.4,81,30.06,10.0,NNW,16.1,21.9,N/A,,Clear,330,2013-11-25 15:53:00
10:13 AM,33.8,28.4,81,30.07,10.0,NNW,16.1,20.7,N/A,,Clear,330,2013-11-25 16:13:00
10:33 AM,35.6,28.4,75,30.07,10.0,NNW,12.7,-,N/A,,Clear,340,2013-11-25 16:33:00
10:53 AM,35.6,28.4,75,30.07,10.0,NNW,16.1,-,N/A,,Clear,330,2013-11-25 16:53:00
11:13 AM,37.4,28.4,70,30.07,10.0,NNW,16.1,-,N/A,,Clear,330,2013-11-25 17:13:00
11:34 AM,37.4,28.4,70,30.07,10.0,NNW,15.0,19.6,N/A,,Clear,330,2013-11-25 17:34:00
11:53 AM,39.2,26.6,61,30.07,10.0,NNW,13.8,19.6,N/A,,Clear,330,2013-11-25 17:53:00
12:14 PM,41.0,26.6,57,30.07,10.0,NW,19.6,25.3,N/A,,Clear,320,2013-11-25 18:14:00
12:33 PM,41.0,24.8,53,30.07,10.0,NW,12.7,25.3,N/A,,Clear,320,2013-11-25 18:33:00
12:53 PM,41.0,24.8,53,30.07,10.0,NNW,16.1,25.3,N/A,,Clear,330,2013-11-25 18:53:00
1:13 PM,41.0,24.8,53,30.07,10.0,NW,13.8,20.7,N/A,,Clear,320,2013-11-25 19:13:00
1:33 PM,41.0,24.8,53,30.07,10.0,NNW,17.3,23.0,N/A,,Clear,330,2013-11-25 19:33:00
1:53 PM,41.0,23.0,49,30.08,10.0,NNW,17.3,27.6,N/A,,Clear,330,2013-11-25 19:53:00
2:14 PM,41.0,23.0,49,30.08,10.0,NNW,17.3,21.9,N/A,,Scattered Clouds,330,2013-11-25 20:14:00
2:33 PM,41.0,23.0,49,30.08,10.0,NNW,18.4,21.9,N/A,,Scattered Clouds,340,2013-11-25 20:33:00
2:53 PM,41.0,23.0,49,30.08,10.0,NNW,17.3,20.7,N/A,,Scattered Clouds,340,2013-11-25 20:53:00
3:13 PM,39.2,23.0,52,30.09,10.0,NNW,15.0,-,N/A,,Scattered Clouds,330,2013-11-25 21:13:00
3:33 PM,37.4,24.8,60,30.10,10.0,NNW,11.5,-,N/A,,Scattered Clouds,330,2013-11-25 21:33:00
3:53 PM,37.4,24.8,60,30.10,10.0,NNW,8.1,-,N/A,,Scattered Clouds,330,2013-11-25 21:53:00
4:14 PM,35.6,23.0,60,30.11,10.0,NNW,6.9,-,N/A,,Clear,330,2013-11-25 22:14:00
4:33 PM,35.6,23.0,60,30.11,10.0,NW,11.5,-,N/A,,Clear,320,2013-11-25 22:33:00
4:53 PM,35.6,23.0,60,30.12,10.0,NNW,8.1,-,N/A,,Clear,330,2013-11-25 22:53:00
5:14 PM,33.8,23.0,65,30.12,10.0,NW,6.9,-,N/A,,Clear,310,2013-11-25 23:14:00
5:33 PM,32.0,23.0,69,30.13,10.0,NW,6.9,-,N/A,,Clear,310,2013-11-25 23:33:00
5:53 PM,30.2,21.2,69,30.13,10.0,WNW,4.6,-,N/A,,Scattered Clouds,300,2013-11-25 23:53:00
6:14 PM,30.2,21.2,69,30.13,10.0,WNW,3.5,-,N/A,,Scattered Clouds,290,2013-11-26 00:14:00
6:33 PM,26.6,19.4,74,30.14,10.0,Calm,Calm,-,N/A,,Scattered Clouds,0,2013-11-26 00:33:00
6:53 PM,28.4,21.2,74,30.14,10.0,Calm,Calm,-,N/A,,Overcast,0,2013-11-26 00:53:00
7:14 PM,30.2,23.0,75,30.14,10.0,NW,5.8,-,N/A,,Mostly Cloudy,310,2013-11-26 01:14:00
7:33 PM,30.2,23.0,75,30.15,10.0,NW,6.9,-,N/A,,Scattered Clouds,320,2013-11-26 01:33:00
7:53 PM,30.2,23.0,75,30.14,10.0,NNW,5.8,-,N/A,,Mostly Cloudy,340,2013-11-26 01:53:00
8:14 PM,30.2,23.0,75,30.14,10.0,NNW,5.8,-,N/A,,Mostly Cloudy,330,2013-11-26 02:14:00
8:33 PM,30.2,23.0,75,30.14,10.0,NNW,4.6,-,N/A,,Overcast,340,2013-11-26 02:33:00
8:53 PM,32.0,23.0,69,30.14,10.0,NW,5.8,-,N/A,,Overcast,320,2013-11-26 02:53:00
9:14 PM,30.2,23.0,75,30.14,10.0,WNW,5.8,-,N/A,,Overcast,300,2013-11-26 03:14:00
9:33 PM,32.0,23.0,69,30.14,10.0,NNW,10.4,16.1,N/A,,Overcast,340,2013-11-26 03:33:00
9:53 PM,32.0,23.0,69,30.14,10.0,NNW,12.7,-,N/A,,Overcast,330,2013-11-26 03:53:00
10:14 PM,32.0,23.0,69,30.14,10.0,NNW,16.1,24.2,N/A,,Overcast,340,2013-11-26 04:14:00
10:33 PM,32.0,23.0,69,30.14,10.0,NNW,12.7,18.4,N/A,,Overcast,330,2013-11-26 04:33:00
10:53 PM,32.0,23.0,69,30.14,10.0,NNW,13.8,21.9,N/A,,Overcast,330,2013-11-26 04:53:00
11:13 PM,32.0,21.2,64,30.15,10.0,NNW,15.0,-,N/A,,Overcast,330,2013-11-26 05:13:00
11:33 PM,32.0,21.2,64,30.15,10.0,NNW,11.5,-,N/A,,Overcast,330,2013-11-26 05:33:00
11:54 PM,32.0,21.2,64,30.15,10.0,NNW,12.7,16.1,N/A,,Overcast,330,2013-11-26 05:54:00